Regional Weather Roundup
Issued by NWS Little Rock, AR

Home | Current Version | Previous Version | Text Only | Print | Product List | Glossary Off
Versions: 1 2 3 4 5 6 7 8 9 10 11 12 13 14 15 16 17 18 19 20 21 22 23 24 25 26 27 28 29 30 31 32 33 34 35 36 37 38 39 40 41 42 43 44 45 46 47 48 49 50

000
ASUS44 KLZK 012005
RWRLZK

WEATHER ROUNDUP FOR ARKANSAS
NATIONAL WEATHER SERVICE LITTLE ROCK AR
300 PM CDT FRI AUG 01 2014

NOTE: "FAIR" INDICATES FEW OR NO CLOUDS BELOW 12,000 FEET WITH NO
SIGNIFICANT WEATHER AND/OR OBSTRUCTIONS TO VISIBILITY.

ARZ001-003-010-029-012100-
NORTHWEST ARKANSAS

CITY           SKY/WX    TMP DP  RH WIND       PRES   REMARKS
FAYETTEVILLE   SUNNY     78  64  61 VRB3      30.09F
FORT SMITH     CLOUDY    79  65  62 E5        30.06F
HARRISON       PTSUNNY   76  63  64 E5        30.10F
BENTONVILLE    PTSUNNY   82  61  47 SE7       30.10F
ROGERS         SUNNY     80  61  52 VRB7      30.10F
SILOAM SPGS    MOSUNNY   79  61  53 NE5       30.09F
HIGHFILL       MOSUNNY   81  62  52 CALM      30.08F
SPRINGDALE     MOSUNNY   81  64  57 NE9       30.11F
$$

ARZ004-005-016-012100-
NORTH CENTRAL ARKANSAS

CITY           SKY/WX    TMP DP  RH WIND       PRES   REMARKS
BATESVILLE     CLOUDY    81  66  61 E7        30.06F
FLIPPIN        CLOUDY    77  64  65 CALM      30.09F
MTN HOME       CLOUDY    76  65  68 CALM      30.08F
$$

ARZ040-041-012100-
WEST CENTRAL ARKANSAS

CITY           SKY/WX    TMP DP  RH WIND       PRES   REMARKS
MENA           CLOUDY    77  66  69 E3        30.08F
MOUNT IDA      CLOUDY    76  67  73 CALM      30.05S
$$

ARZ009-017-025-026-028-012100-
NORTHEAST ARKANSAS

CITY           SKY/WX    TMP DP  RH WIND       PRES   REMARKS
CORNING        LGT RAIN  82  66  57 CALM      30.06F HX  85
JONESBORO      CLOUDY    82  66  58 E7        30.05F
NEWPORT        MOSUNNY   80  66  62 CALM      30.06F
WALNUT RIDGE   MOSUNNY   81  52  36 CALM      30.05F
BLYTHEVILLE    CLOUDY    84  66  54 VRB5      30.05F HX  86
$$

ARZ022-023-033-042-044-012100-
CENTRAL ARKANSAS

CITY           SKY/WX    TMP DP  RH WIND       PRES   REMARKS
LITTLE ROCK    CLOUDY    80  65  59 NE6       30.04F
N LITTLE ROCK  CLOUDY    78  70  76 N5        30.04F
JACKSONVILLE   PTSUNNY   79  67  66 NE8       30.04F
SEARCY         PTSUNNY   78  67  68 N8        30.05F
HOT SPRINGS    CLOUDY    75  67  76 SE5       30.06F
RUSSELLVILLE   CLOUDY    79  67  66 CALM      30.06F
CLINTON        CLOUDY    77  68  73 CALM      30.07F
$$

ARZ036-012100-
EAST ARKANSAS

CITY           SKY/WX    TMP DP  RH WIND       PRES   REMARKS
WEST MEMPHIS   PTSUNNY   82  66  58 E9        30.03S
$$

ARZ050-053-066-070-073-012100-
SOUTHWEST ARKANSAS

CITY           SKY/WX    TMP DP  RH WIND       PRES   REMARKS
ARKADELPHIA    LGT RAIN  72  71  96 NE5       30.05F FOG
CAMDEN         RAIN      70  66  88 NE5       30.04F VSB 1
TEXARKANA      CLOUDY    71  68  90 NE8       30.04S
EL DORADO      LGT RAIN  69  68  96 NE8       30.02F FOG
DE QUEEN       CLOUDY    77  68  73 E6        30.03F
$$

ARZ056-057-069-012100-
SOUTHEAST ARKANSAS

CITY           SKY/WX    TMP DP  RH WIND       PRES   REMARKS
PINE BLUFF     CLOUDY    73  68  84 SW6       30.05F
STUTTGART      CLOUDY    75  70  83 NE7       30.04F
MONTICELLO     CLOUDY    72  68  87 VRB3      30.03F

$$




USA.gov is the U.S. government's official web portal to all federal, state and local government web resources and services.